Location: Madden
(51.3728°N, 114.3297°W)
Time: 08:01:07
(UTC+00:00)

Envisat - Visible Passes

Search period start: 08 June 2023 00:00
Search period end: 18 June 2023 00:00
Orbit: 763 x 765 km, 98.2° (Epoch: 07 June)

Date Brightness Start Highest point End Pass type
(mag) Time Alt. Az. Time Alt. Az. Time Alt. Az.
09 Jun 5.4 10:24:45 10° NE 10:28:30 20° E 10:32:13 10° SE visible
12 Jun 5.5 10:12:45 10° NE 10:15:54 16° E 10:19:02 10° SE visible
15 Jun 5.7 10:01:00 10° ENE 10:03:16 13° E 10:05:31 10° ESE visible
17 Jun 5.3 10:24:33 10° NE 10:28:20 21° E 10:32:05 10° SE visible
